Location: Lane
(41.7509°N, 81.1812°W)
Time: 14:02:52
(UTC+00:00)

Daily predictions for brighter satellites

Satellite Brightness Start Highest point End
(mag) Time Altitude Azimuth Time Altitude Azimuth Time Altitude Azimuth
Cosmos 1805 Rocket 4.1 22:20:45 10° N 22:24:54 37° ENE 22:29:00 10° SE
Radarsat Rocket 4.1 22:20:12 10° SSE 22:26:06 69° ENE 22:32:37 10° NNW
Cosmos 2219 Rocket 3.4 22:21:10 10° SW 22:26:28 41° WNW 22:31:47 10° N
Cosmos 405 4.0 22:23:10 10° SSW 22:26:34 49° WNW 22:29:58 10° N
YAOGAN 6 2.6 22:23:20 10° SSE 22:26:57 62° ENE 22:30:33 10° N
Cosmos 389 Rocket 3.5 22:25:09 10° SSE 22:28:02 26° E 22:30:56 10° NE
USA 281 4.3 22:28:14 10° E 22:33:01 22° NE 22:37:49 10° N
MOS 1-B 4.5 22:27:53 10° SSE 22:33:42 87° WSW 22:39:32 10° NNW
CZ-4B R/B 3.2 22:29:39 10° SSE 22:34:55 61° ENE 22:40:09 10° N
H-2A R/B 3.7 22:32:16 10° S 22:35:59 52° W 22:39:46 10° NNW
Landsat 5 3.9 22:32:01 10° N 22:36:25 77° WNW 22:40:53 10° SSW
ISS -2.8 22:33:14 10° W 22:36:27 41° NNW 22:39:40 10° NE
Cosmos 1939 Rocket 4.2 22:33:55 10° ESE 22:36:35 18° ENE 22:39:16 10° NNE
Cosmos 2237 Rocket 2.2 22:32:03 10° SSW 22:37:40 84° ESE 22:43:20 10° NNE
OE (NEXTSAT) 4.5 22:35:03 10° SW 22:38:28 64° SSE 22:41:40 11° ENE
CORIOLIS 4.2 22:40:58 10° SSE 22:46:17 64° ENE 22:51:40 10° N
CREW DRAGON DEMO-1 DEB 4.3 22:46:15 10° NNW 22:48:38 21° NNE 22:50:09 15° ENE
Nadezhda 1 Rocket 4.2 22:42:25 10° S 22:48:45 81° W 22:55:11 10° N
Cosmos 405 Rocket 3.5 22:46:31 10° NNW 22:50:23 58° W 22:54:17 10° S
H-2A R/B 2.3 22:46:17 10° N 22:50:27 70° WNW 22:54:41 10° SSW
FengYun 1-2 T 4.3 22:45:03 10° SSE 22:50:27 56° ENE 22:55:51 10° N
CZ-4B R/B 1.8 22:47:39 10° NNE 22:50:33 36° E 22:53:26 10° SSE
Cosmos 2369 Rocket 3.8 22:49:14 10° NNE 22:52:03 14° NE 22:53:22 13° ENE
Cosmos 1356 3.8 22:49:18 10° N 22:52:33 39° ENE 22:55:46 10° SSE
Abrixas rocket 2.7 22:52:08 10° WNW 22:54:48 47° SSW 22:57:28 10° SE
SKYMED 2 4.4 22:51:51 10° NE 22:55:41 30° E 22:59:30 10° SSE
Cosmos 1980 4.1 22:50:34 10° SW 22:56:12 66° WNW 23:01:52 10° NNE
Cosmos 1633 Rocket 3.6 22:56:53 10° N 23:00:54 34° ENE 23:04:52 10° SE
ADEOS Rocket 4.5 22:55:42 10° N 23:03:03 51° WNW 23:10:28 10° SW
X-37B 3.1 23:03:09 10° SSE 23:03:45 10° SE 23:04:21 10° SE
Cosmos 1867 3.5 22:59:10 10° SSW 23:04:34 74° ESE 23:09:40 12° NE
Cosmos 1606 2.7 23:04:05 10° S 23:07:59 85° WNW 23:11:53 10° N
Cosmos 962 Rocket 4.4 23:01:47 10° N 23:08:07 78° E 23:14:18 10° S
SAR-Lupe-4 4.1 23:08:16 17° NE 23:10:37 36° E 23:13:56 10° SSE
Cosmos 1933 3.4 23:06:44 10° S 23:10:39 54° E 23:14:38 10° NNE
CZ-2C R/B 3.7 23:08:59 10° SE 23:13:19 29° ENE 23:17:30 10° N
SMAP 3.7 23:08:47 10° S 23:13:21 58° W 23:17:58 10° NNW
Cosmos 1818 4.2 23:08:03 10° NW 23:13:26 60° WSW 23:18:46 10° SSE
Cosmos 1943 Rocket 2.9 23:11:43 10° N 23:16:30 29° NE 23:19:12 20° E
USA 215 3.2 23:12:52 15° NE 23:18:32 89° ESE 23:25:05 10° SW
Cosmos 2341 Rocket 4.0 23:12:16 10° N 23:18:36 84° E 23:24:56 10° S
Cosmos 1125 Rocket 4.2 23:14:55 10° NNW 23:20:00 56° WSW 23:25:05 10° S
Cosmos 2297 3.8 23:15:12 10° NNW 23:20:45 52° ENE 23:26:19 10° SE
Cosmos 1782 3.3 23:21:04 10° SSE 23:24:39 35° E 23:25:18 32° ENE
SL-16 R/B 2.1 23:20:49 10° SSW 23:26:27 75° ESE 23:31:22 14° NNE
Meteor 1-4 Rocket 3.1 23:23:11 10° SSE 23:26:26 34° E 23:26:26 34° E
SAR-Lupe-1 4.0 23:25:47 24° NNE 23:27:45 59° ESE 23:31:18 10° S
BREEZE-M DEB (TANK) 4.2 23:18:38 10° SW 23:29:35 46° SSE 23:31:28 29° E
YAOGAN 1 3.4 23:30:24 29° NE 23:30:24 29° NE 23:33:25 10° N
ERS-2 2.4 23:27:24 10° N 23:31:02 66° WNW 23:34:39 10° SSW
Cosmos 1689 Rocket 2.5 23:32:44 43° SE 23:32:44 43° SE 23:35:04 10° S
Cosmos 2285 Rocket 4.0 23:26:27 10° NNW 23:32:48 61° ENE 23:39:04 10° SSE
PSLV R/B 3.9 23:32:05 28° NE 23:33:57 53° E 23:37:54 10° S
SL-24 R/B 3.7 23:32:18 19° NNE 23:35:00 66° E 23:38:40 10° S
Helios 1A Rocket 3.2 23:36:27 41° ENE 23:36:27 41° ENE 23:40:05 10° N
BREEZE-M DEB (TANK) 3.0 23:34:13 10° W 23:36:12 30° NNW 23:36:12 30° NNW
Cosmos 1470 Rocket 3.7 23:33:24 10° N 23:37:36 47° ENE 23:41:45 10° SSE
Cosmos 864 Rocket 4.4 23:31:20 10° N 23:37:39 70° E 23:43:52 10° SSE
SL-8 Rocket 4.0 23:31:56 10° N 23:38:12 90° E 23:44:29 10° S
Meteor 1-26 Rocket 4.3 23:34:41 10° S 23:40:39 73° E 23:46:40 10° NNE
IRS-1C Rocket 4.0 23:36:38 10° SSE 23:41:54 82° ENE 23:47:12 10° NNW
Cosmos 1515 Rocket 3.6 23:39:05 10° SSE 23:43:16 50° E 23:43:50 46° ENE
BREEZE-M DEB (TANK) 4.1 23:41:56 10° NW 23:42:50 16° NNW 23:42:50 16° NNW
COSMO-SKYMED 1 2.6 23:39:29 10° N 23:43:49 80° WNW 23:48:09 10° SSW
CZ-2D R/B 3.0 23:40:31 10° SSE 23:44:18 78° ENE 23:48:08 10° N
Lacrosse 5 rocket 1.0 23:41:18 10° SW 23:44:57 77° NW 23:45:31 60° NNE
Cosmos 2181 Rocket 4.2 23:39:07 10° S 23:45:33 78° W 23:51:59 10° N
Cosmos 1959 Rocket 4.4 23:40:17 10° N 23:46:41 85° E 23:53:02 10° S
Cosmos 1602 4.1 23:43:09 10° N 23:49:54 17° SSE 23:50:53 10° SSE
Okean-O 2.5 23:44:32 10° SSE 23:48:54 61° ENE 23:53:17 10° N
USA 267 3.4 23:47:07 32° E 23:50:03 56° NNE 23:56:24 10° NW
Cosmos 1821 Rocket 4.3 23:46:25 10° N 23:52:14 40° ENE 23:53:05 38° E
MOS 1 Rocket 3.6 23:51:15 25° NNE 23:54:26 61° E 23:59:46 10° S
